1st Responders/1st Detectors/Storm Spotters Weather Summary for Bath County, KY

Forecast Maps


Reg. NEXRAD Animation


National Fire Danger: Day 1 & 2 Map

Current NWS Watch/Warnings

SPC Convective Day 1 Outlook


Day 2 Outlook

(Click images to enlarge|Page will refresh every 5 minutes)
UK Ag. Weather Center Desktop Severe Weather Service[HERE]
Bath County, KY Hazardous Weather Outlook Webcast
(9 AM to 9 PM Mon-Fri)
[Fast]
[Dial-up]


UKAWC 1st Detectors/1st Responders Precision Weather Forecast For BATH County, Kentucky
(based on the NWS County Digital Forecast)

ISSUED AT 14:00 UTC ON SUNDAY JUL 22 2018
DAY SUNDAY
EDT 3HR 11A NOON 1P 2P 3P 4P 5P 6P 7P
MAX/MIN -- -- -- -- -- -- -- -- 74°
TEMP 68° 70° 72° 74° 74° 74° 74° 74° 72°
SKY COVER 100% 98% 97% 96% 91% 87% 83% 83% 82%
Clouds
DEW PT 67° 67° 68° 68° 68° 68° 68° 68° 70°
RH 93% 90% 90% 83% 84% 82% 81% 84% 90%
POP 12HR -- -- -- -- -- -- -- -- --
RAIN/SNOW (liq.equ) -- -- -- 0.14in -- -- -- -- --
SNOWFALL -- -- -- 0in -- -- -- -- --
WIND SPEED(MPH) 7 7 7 6 6 5 5 5 5
WIND Gust(MPH) 9 9 9 8 8 7 7 7 7
WIND DIR W W W W W W W W W
DEW -- -- -- -- -- Lgt Dew Lgt Dew Lgt Dew Mod Dew
HeatIndex 68 70 72 74 74 74 74 74 72
Rain Showers Likely Chance Chance Likely Likely Likely Likely Likely Likely
Thunder Storm -- Slight Chance Chance Chance Chance Chance Chance Chance Chance
Fog Patchy Chance -- -- -- -- -- -- --
WIND CHILL -- -- -- -- -- -- -- -- --
SPRAY COND
DRY COND
LIVESTOCK HEATSTRESS 67.65 69.38 71.27 72.58 72.66 72.50 72.41 72.66 71.27



DAY MONDAY TUESDAY WEDNESDAY THURSDAY FRIDAY SATURDAY
EDT 6HR 8P 9P 10P 11P MIDN 1A 2A 3A 4A 5A 6A 7A 8A 9A 10A 11A NOON 1P 2P 3P 4P 5P 6P 7P 8P 9P 10P 11P 2A 5A 8A 11A 2P 5P 8P 2A 8A 2P 8P 2A 8A 2P 8P 2A 8A 2P 8P 2A 8A 2P 8P
MAX/MIN -- -- -- -- -- -- -- -- -- -- -- -- 65° -- -- -- -- -- -- -- -- -- -- 79° -- -- -- -- -- -- 67° -- -- 83° -- -- 67° 83° -- -- 67° 85° -- -- 67° 85° -- -- 65° 85° --
TEMP 72° 70° 70° 70° 68° 67° 67° 67° 65° 65° 65° 67° 67° 70° 72° 74° 76° 77° 79° 79° 79° 79° 79° 77° 76° 74° 72° 70° 67° 67° 68° 77° 81° 83° 77° 68° 68° 81° 79° 68° 68° 85° 79° 68° 68° 85° 77° 68° 67° 83° 76°
SKY COVER 82% 81% 81% 80% 80% 81% 81% 82% 84% 85% 87% 89% 91% 90% 89% 88% 86% 83% 81% 78% 74% 72% 73% 76% 78% 77% 75% 74% 75% 79% 77% 73% 71% 75% 77% 72% 77% 73% 55% 39% 33% 23% 22% 33% 53% 47% 47% 57% 57% 52% 60%
Clouds
DEW PT 70° 68° 67° 67° 65° 65° 65° 65° 65° 65° 65° 65° 65° 65° 67° 67° 68° 68° 70° 70° 70° 70° 70° 68° 68° 67° 67° 67° 67° 65° 67° 70° 72° 72° 72° 67° 68° 72° 72° 67° 67° 68° 70° 65° 67° 67° 67° 63° 65° 67° 67°
RH 93% 93% 90% 90% 90% 92% 97% 96% 100% 99% 100% 96% 93% 87% 84% 79% 76% 73% 71% 71% 71% 71% 74% 74% 76% 78% 84% 87% 97% 96% 96% 76% 73% 70% 82% 96% 100% 71% 79% 96% 97% 58% 71% 90% 93% 56% 69% 83% 89% 57% 71%
POP 12HR 72% -- -- -- -- -- -- -- -- -- -- -- 56% -- -- -- -- -- -- -- -- -- -- -- 60% -- -- -- -- -- 34% -- -- -- 57% -- 41% -- 46% -- 19% -- 8% -- 8% -- 17% -- 10% -- 16%
RAIN/SNOW (liq.equ) 0.25in -- -- -- -- -- 0.05in -- -- -- -- -- 0.00in -- -- -- -- -- 0.02in -- -- -- -- -- 0.08in -- -- -- 0.01in -- 0.00in -- 0.04in -- 0.13in -- -- -- -- -- -- -- -- -- -- -- -- -- -- -- --
SNOWFALL 0in -- -- -- -- -- 0in -- -- -- -- -- 0in -- -- -- -- -- 0in -- -- -- -- -- 0in -- -- -- 0in -- 0in -- 0in -- 0in -- -- -- -- -- -- -- -- -- -- -- -- -- -- -- --
WIND SPEED(MPH) 2 2 1 1 1 2 2 2 1 1 1 2 2 2 2 2 2 2 2 2 5 5 5 2 2 2 1 1 1 1 1 1 1 2 1 1 1 1 1 1 1 6 2 2 2 5 2 1 1 1 2
WIND DIR W SW SE E E E E E E NE NE NE NE E SE SE S W NW NW NW N N N N N N N N N NE E NW N N N N NW NW W W NW W N N NW N NE NE NW N
HeatIndex 72 70 70 70 68 67 67 67 65 65 65 67 67 70 72 74 76 77 83 83 83 83 79 77 76 74 72 70 67 67 68 77 87 88 77 68 68 86 79 68 68 88 83 68 68 88 77 68 67 86 76
Rain Showers Likely Chance Chance Chance Chance Chance Slight Chance Slight Chance Slight Chance Slight Chance Slight Chance Slight Chance Slight Chance Chance Chance Chance Chance Chance Chance Chance Likely Likely Chance Chance Chance Chance Chance Chance Slight Chance Slight Chance -- Chance Chance Likely Chance Chance Slight Chance Chance Slight Chance -- -- -- -- -- -- -- -- -- -- -- Slight Chance
Thunder Storm Chance Chance -- -- -- -- -- -- -- -- -- -- -- -- -- -- Chance Chance Chance Chance Chance Chance Chance Chance Slight Chance -- -- -- -- -- -- Slight Chance Chance Slight Chance Slight Chance -- -- Chance -- -- -- -- -- -- -- -- -- -- -- -- --
Fog -- -- -- Patchy Patchy Patchy Patchy Patchy Patchy Patchy Patchy Patchy -- -- -- -- -- -- -- -- -- -- -- -- -- -- -- -- -- -- -- -- -- -- -- -- -- -- -- -- -- -- -- -- -- -- -- -- -- -- --
WIND CHILL -- -- -- -- -- -- -- -- -- -- -- -- -- -- -- -- -- -- -- -- -- -- -- -- -- -- -- -- -- -- -- -- -- -- -- -- -- -- -- -- -- -- -- -- -- -- -- -- -- -- --
SPRAY COND
DRY COND
LIVESTOCK HEATSTRESS 71.49 69.57 69.38 69.38 67.49 66.64 66.86 66.82 65.00 64.97 65.00 66.82 66.68 69.20 70.84 72.24 73.73 74.30 75.78 75.78 75.78 75.78 76.11 74.40 73.73 72.16 70.84 69.20 66.86 66.82 67.80 74.60 77.70 79.01 75.20 67.80 68.00 77.46 76.67 67.80 67.85 78.95 75.78 67.49 67.65 78.66 73.90 67.14 66.50 77.28 73.26

Click on individual weather variable above in left-hand column (ie., TEMP, RH, QPF 12HR) to view state forecast maps






NWS 48 Hr. Forecast Maps,

Regional Hourly Observations For BATH County, Kentucky
Issued at 1000 AM EDT SUN JUL 22 2018
NORTHEAST KENTUCKY
  
CITY           SKY/WX    TMP DP  RH WIND       PRES   REMARKS
LEXINGTON      RAIN      68  66  93 W9        29.74R FOG              
COVINGTON      CLOUDY    70  68  93 N10       29.72R                  
FRANKFORT      CLOUDY    69  67  93 W6        29.72S FOG              


Current NOWCAST not available:
Nowcasts are not issued routinely during fair weather. Only when
precipitation or other significant weather is occuring in this county will these
forecasts be issued. Currently, there is no short term forecast in effect.


Fire Weather Forecast For BATH County, KY
Provided by the National Weather Service:

Issued at: Sun Jul 22 10:05:01 EDT 2018

553 AM EDT Sun Jul 22 2018

                      Today        Tonight      Mon          

Cloud Cover           MCldy        MCldy        MCldy        
Chance precip (%)     70           60           60           
Precip type           tstms        tstms        tstms        
Temp (24H TREND)      75-76 (-5)   63-66 (0)    79-82        
Rh % (24H TREND)      76-81 (+14)  97-100 (0)   62-69        
20ftwnd-AM(mph)       SW 3-7                    Lgt/Var      
20ftwnd-PM(mph)       SW 2-6       Lgt/Var      Lgt/Var      
Precip duration       2            1            2            
Precip begin          8 AM         Continuing   Continuing   
Precip end            Continuing   Continuing   Continuing   
Precip amount         0.32         0.06         0.14         
LAL                   3            3            3            
Haines Index (MID)    3                         3            
Mixing hgt(ft-AGL)    2700                      4600         
Transport wnd (mph)   SW  9                     SE  7        
Vent rate (kt-ft)     22538                     28543        
ADI Early             25 Fair      3 Very Poor  28 Fair      
ADI Late              25 Fair      3 Very Poor  27 Fair      
Max LVORI Early       5            8            8            
Max LVORI Late        5            10           4            

REMARKS...RANGES OF MIN T EXCEEDING 8 DEGREES & RANGES OF MAX RH        
EXCEEDING 10% INDICATE THE LIKELIHOOD OF THERMAL BELTS. ADI IS        
ATMOSPHERIC DISPERSION INDEX BY LAVDAS. DISPERSION INDEX IS        
MAGNITUDE OF VENT RATE DIVIDED BY 1000.


SPC's Fire Weather Web Tool (Excellent!), SPC's Fire Weather Outlooks, NWS Fire Weather WEB, Fire Danger Class Map,
Keetch-Byram Drought Index, ROMAN Web, Haines Index ,
WFAS's 10-hr Dead Fuel Moist., WFAS's 100-hr Dead Fuel Moist., Probablity of Ignition, Visual blackness Map, Palmer Drought Index, HPC's Rainfall Forecast Maps


Hazardous Weather Outlook For BATH County, Kentucky
447 AM EDT Sun Jul 22 2018

 DAY ONE  Today and Tonight.

Thunderstorms are possible, mainly during this afternoon and evening.
A few thunderstorms could produce locally heavy rain.

 DAYS TWO THROUGH SEVEN  Monday through Saturday.

Thunderstorms will be possible at times, mainly during the 
afternoon and evening hours.

 SPOTTER INFORMATION STATEMENT  

Spotter activation is not anticipated.

Latest BATH County, Kentucky Watches, Warnings and Advisories.
Additional Drought Info.: UKAWC Drought Page, Kentucky Drought Watch


7-Day Forecast For BATH County, KY

TODAY
Cloudy. Patchy fog early. Showers likely and a chance of thunderstorms through the day. Highs in the mid 70s. Light winds. Chance of rain 70 percent.

TONIGHT
Mostly cloudy. Showers likely and a chance of thunderstorms in the evening. A slight chance of showers late. Patchy fog. Lows in the mid 60s. Light winds. Chance of rain 60 percent.

MONDAY
Mostly cloudy. Showers likely and a chance of thunderstorms. Highs in the upper 70s. Light winds. Chance of rain 60 percent.

MONDAY NIGHT
Mostly cloudy. A chance of showers and a slight chance of thunderstorms in the evening, then a slight chance of showers late. Lows in the upper 60s. Light winds. Chance of rain 30 percent.

TUESDAY
Mostly cloudy. A chance of showers and thunderstorms in the morning, then showers likely and a chance of thunderstorms in the afternoon. Highs in the lower 80s. Light winds. Chance of rain 60 percent.

TUESDAY NIGHT
Mostly cloudy with a chance of showers and a slight chance of thunderstorms. Lows in the upper 60s. Chance of rain 40 percent.

WEDNESDAY
Mostly cloudy with a 50 percent chance of showers and thunderstorms. Highs in the lower 80s.

WEDNESDAY NIGHT
Partly cloudy with a 20 percent chance of showers. Lows in the upper 60s.

THURSDAY
Sunny. Highs in the mid 80s.

THURSDAY NIGHT
Partly cloudy. Lows in the upper 60s.

FRIDAY
Mostly sunny with a 20 percent chance of showers and thunderstorms. Highs in the lower 80s.

FRIDAY NIGHT
Mostly cloudy. Lows in the mid 60s.

SATURDAY
Partly sunny with a 20 percent chance of showers and thunderstorms. Highs in the mid 80s.

Ag Weather Center, Department of Biosystems & Agricultural Engineering, University of Kentucky